• Join FlightAware (Why Join?)
  • Login
  • US Flag 
02:44AM EST


 

Airport Tracker/Info


-or-


 

Live Flight TrackerFlight Track Log ✈ SWA2955 ✈ 21-Apr-2013 ✈ KBHM - KMCO

Flight Track Log - Related Links

Times and Time Zones

All times are in EDT time to prevent confusion due to time zone crossing. See the SWA2955 flight status page for this flight to view local times or setup timezone preferences in your user account.

Time Position Orientation Groundspeed Altitude Reporting Facility
EDT Latitude Longitude Course Direction KTS MPH feet Rate Location/Type
11:27AM 33.5683 -86.7489 54° Northeast 151 174 1,300  Level Atlanta Center
11:28AM 33.6072 -86.6853 54° Northeast 237 273 3,900 2,460 Climbing Atlanta Center
11:29AM 33.6400 -86.6114 62° Northeast 230 265 7,000 3,150 Climbing Atlanta Center
11:30AM 33.5739 -86.5769 157° South 178 205 10,200 3,400 Climbing Atlanta Center
11:31AM 33.4950 -86.5572 168° South 211 243 13,800 2,900 Climbing Atlanta Center
11:32AM 33.4036 -86.5397 171° South 280 322 16,000 2,800 Climbing Atlanta Center
11:33AM 33.3128 -86.4922 156° South 327 376 19,400 2,950 Climbing Atlanta Center
11:34AM 33.2328 -86.4156 141° Southeast 346 398 21,900 1,800 Climbing Atlanta Center
11:35AM 33.1381 -86.3558 152° Southeast 369 425 23,000 1,700 Climbing Atlanta Center
11:36AM 33.0453 -86.2889 149° Southeast 380 437 25,300 2,350 Climbing Atlanta Center
11:37AM 32.9589 -86.2225 147° Southeast 380 437 27,700 2,000 Climbing Atlanta Center
11:38AM 32.8642 -86.1458 146° Southeast 389 448 29,300 1,650 Climbing Atlanta Center
11:39AM 32.7781 -86.0500 137° Southeast 402 463 31,000 850 Climbing Atlanta Center
11:40AM 32.6983 -85.9369 130° Southeast 422 486 31,000  Level Atlanta Center
11:41AM 32.6228 -85.8244 129° Southeast 433 498 31,000  Level Atlanta Center
11:42AM 32.5431 -85.7119 130° Southeast 439 505 31,000  Level Atlanta Center
11:43AM 32.4631 -85.6022 131° Southeast 439 505 31,000  Level Atlanta Center
11:44AM 32.3831 -85.4875 130° Southeast 439 505 31,000  Level Atlanta Center
11:46AM 32.2378 -85.2847 130° Southeast 437 503 31,000  Level Jacksonville Center
11:47AM 32.1606 -85.1700 128° Southeast 437 503 31,000  Level Jacksonville Center
11:48AM 32.0811 -85.0625 131° Southeast 437 503 31,000  Level Jacksonville Center
11:49AM 32.0017 -84.9503 130° Southeast 437 503 31,000  Level Jacksonville Center
11:50AM 31.9197 -84.8383 131° Southeast 437 503 31,000  Level Jacksonville Center
11:51AM 31.8422 -84.7292 130° Southeast 437 503 31,000  Level Jacksonville Center
11:52AM 31.7622 -84.6178 130° Southeast 437 503 31,000  Level Jacksonville Center
11:53AM 31.6822 -84.5064 130° Southeast 437 503 31,000  Level Jacksonville Center
11:54AM 31.6022 -84.4000 131° Southeast 437 503 31,000  Level Jacksonville Center
11:55AM 31.5242 -84.2917 130° Southeast 437 503 31,000  Level Jacksonville Center
11:56AM 31.4439 -84.1831 131° Southeast 437 503 31,000  Level Jacksonville Center
11:57AM 31.3636 -84.0725 130° Southeast 437 503 31,000  Level Jacksonville Center
11:58AM 31.2831 -83.9622 131° Southeast 437 503 31,000  Level Jacksonville Center
11:59AM 31.1983 -83.8617 135° Southeast 437 503 31,000  Level Jacksonville Center
12:00PM 31.1133 -83.7614 135° Southeast 432 497 31,000  Level Jacksonville Center
12:01PM 31.0264 -83.6611 135° Southeast 432 497 31,000  Level Jacksonville Center
12:02PM 30.9392 -83.5586 135° Southeast 432 497 31,000  Level Jacksonville Center
12:03PM 30.8519 -83.4564 135° Southeast 432 497 31,000 -150 Level Jacksonville Center
12:04PM 30.7564 -83.3469 135° Southeast 432 497 30,700 -1,450 Descending Jacksonville Center
12:05PM 30.6731 -83.2475 134° Southeast 432 497 28,100 -1,850 Descending Jacksonville Center
12:06PM 30.5858 -83.1483 136° Southeast 432 497 27,000 -550 Descending Jacksonville Center
12:07PM 30.5086 -83.0614 136° Southeast 432 497 27,000  Level Jacksonville Center
12:08PM 30.4231 -82.9625 135° Southeast 432 497 27,000  Level Jacksonville Center
12:09PM 30.3375 -82.8636 135° Southeast 432 497 27,000  Level Jacksonville Center
12:10PM 30.2478 -82.7628 136° Southeast 432 497 27,000  Level Jacksonville Center
12:11PM 30.1639 -82.6667 135° Southeast 432 497 27,000 -450 Level Jacksonville Center
12:12PM 30.0803 -82.5758 137° Southeast 426 490 26,100 -900 Descending Jacksonville Center
12:13PM 29.9964 -82.4800 135° Southeast 421 484 25,200 -550 Descending Jacksonville Center
12:14PM 29.8939 -82.4253 155° Southeast 404 465 25,000 -100 Descending Jacksonville Center
12:15PM 29.7875 -82.3875 163° South 404 465 25,000  Level Jacksonville Center
12:16PM 29.6808 -82.3475 162° South 404 465 25,000  Level Jacksonville Center
12:17PM 29.5719 -82.3100 163° South 404 465 25,000 -450 Level Jacksonville Center
12:18PM 29.4653 -82.2653 160° South 404 465 24,100 -1,600 Descending Jacksonville Center
12:19PM 29.3692 -82.2064 152° Southeast 404 465 21,800 -2,150 Descending Jacksonville Center
12:20PM 29.2706 -82.1547 155° Southeast 399 459 19,800 -1,900 Descending Jacksonville Center
12:21PM 29.1764 -82.1006 153° Southeast 387 445 18,000 -2,050 Descending Jacksonville Center
12:22PM 29.0864 -82.0492 153° Southeast 377 434 15,700 -2,200 Descending Jacksonville Center
12:23PM 28.9983 -81.9975 153° Southeast 365 420 13,600 -2,150 Descending Jacksonville Center
12:24PM 28.9019 -81.9414 153° Southeast 360 414 11,400 -1,700 Descending Jacksonville Center
12:25PM 28.8408 -81.8639 132° Southeast 342 394 10,200 -977 Descending Jacksonville Center
12:26PM 28.8167 -81.8167 120° Southeast 318 366 10,000 -140 Descending Orlando TRACON
12:27PM 28.7667 -81.7500 131° Southeast 290 334 10,000  Level Orlando TRACON
12:28PM 28.7333 -81.6667 115° Southeast 290 334 10,000  Level Orlando TRACON
12:29PM 28.6833 -81.5833 124° Southeast 294 338 10,000 -250 Level Orlando TRACON
12:30PM 28.6500 -81.5000 114° Southeast 294 338 9,500 -500 Descending Orlando TRACON
12:31PM 28.6000 -81.4333 130° Southeast 281 323 9,000 -250 Descending Orlando TRACON
12:32PM 28.5333 -81.4167 168° South 273 314 9,000 -793 Level Orlando TRACON
12:33PM 28.4500 -81.4167 180° South 280 322 7,400 -1,438 Descending Orlando TRACON
12:34PM 28.3833 -81.4167 180° South 268 308 6,100 -1,450 Descending Orlando TRACON
12:35PM 28.3167 -81.3833 156° South 233 268 4,500 -1,500 Descending Orlando TRACON
12:36PM 28.2667 -81.3500 150° Southeast 184 212 3,100 -1,350 Descending Orlando TRACON
12:37PM 28.2833 -81.3167 60° Northeast 178 205 1,800 -750 Descending Orlando TRACON
12:38PM 28.3333 -81.3000 16° North 159 183 1,600 -500 Descending Orlando TRACON
12:39PM 28.3667 -81.3000 360° North 140 161 800 -800 Descending Orlando TRACON
12:41PM 28.4167 -81.3000 24° Northeast  Level FlightAware Approximate
12:48PM 28.4294 -81.3090 24° Northeast  Level Estimated
12:49PM 28.4294 -81.3090 24° Northeast  Level Estimated
12:50PM 28.4294 -81.3090 24° Northeast  Level Estimated
12:51PM 28.4294 -81.3090 24° Northeast  Level Estimated